Flight Track Log - Related Links

Times and Time Zones

All times are in EST time to prevent confusion due to time zone crossing. See the SWA4195 flight status page for this flight to view local times or setup timezone preferences in your user account.


Time Position Orientation Groundspeed Altitude Reporting Facility
EST Latitude Longitude Course Direction KTS MPH feet Rate Location/Type
Tue 03:34:47 PM 36.1333 -86.6833 15° North 139 160 1,400  Level Nashville TRACON
Tue 03:35:53 PM 36.1833 -86.6667 15° North 185 213 4,800 3,150 Climbing Nashville TRACON
Tue 03:36:47 PM 36.1833 -86.7333 270° West 236 272 7,700 3,907 Climbing Nashville TRACON
Tue 03:37:19 PM 36.1800 -86.7692 263° West 232 267 10,400 3,613 Climbing Memphis Center
Tue 03:38:20 PM 36.1628 -86.8658 258° West 289 333 13,300 3,707 Climbing Memphis Center
Tue 03:39:22 PM 36.1444 -86.9719 258° West 309 356 18,000 4,000 Climbing Memphis Center
Tue 03:40:23 PM 36.1267 -87.0700 257° West 295 339 21,500 3,049 Climbing Memphis Center
Tue 03:41:24 PM 36.1067 -87.1764 257° West 305 351 24,200 2,780 Climbing Memphis Center
Tue 03:42:26 PM 36.0858 -87.2850 257° West 318 366 27,200 2,732 Climbing Memphis Center
Tue 03:43:27 PM 36.0644 -87.3911 256° West 317 365 29,800 2,341 Climbing Memphis Center
Tue 03:44:29 PM 36.0433 -87.4953 256° West 312 359 32,000 1,854 Climbing Memphis Center
Tue 03:45:30 PM 36.0222 -87.6017 256° West 315 362 33,600 1,854 Climbing Memphis Center
Tue 03:46:32 PM 36.0008 -87.7044 256° West 309 356 35,800 1,805 Climbing Memphis Center
Tue 03:47:33 PM 35.9817 -87.7992 256° West 289 333 37,300 1,180 Climbing Memphis Center
Tue 03:48:34 PM 35.9617 -87.9011 256° West 298 343 38,200 878 Climbing Memphis Center
Tue 03:49:36 PM 35.9381 -88.0092 255° West 317 365 39,100 829 Climbing Memphis Center
Tue 03:50:37 PM 35.9136 -88.1217 255° West 331 381 39,900 439 Climbing Memphis Center
Tue 03:51:39 PM 35.8886 -88.2500 257° West 345 397 40,000 49 Climbing Memphis Center
Tue 03:52:40 PM 35.8400 -88.3556 240° Southwest 355 409 40,000  Level Memphis Center
Tue 03:53:41 PM 35.7889 -88.4578 238° Southwest 351 404 40,000  Level Memphis Center
Tue 03:54:43 PM 35.7381 -88.5614 239° Southwest 351 404 40,000  Level Memphis Center
Tue 03:55:44 PM 35.6878 -88.6633 239° Southwest 349 402 40,000  Level Memphis Center
Tue 03:56:45 PM 35.6369 -88.7656 239° Southwest 349 402 40,000  Level Memphis Center
Tue 03:57:47 PM 35.5822 -88.8711 238° Southwest 347 399 40,000  Level Memphis Center
Tue 03:58:48 PM 35.5319 -88.9728 239° Southwest 346 398 40,000  Level Memphis Center
Tue 03:59:49 PM 35.4803 -89.0756 238° Southwest 350 403 40,000  Level Memphis Center
Tue 04:00:51 PM 35.4278 -89.1769 238° Southwest 349 402 40,000  Level Memphis Center
Tue 04:01:52 PM 35.3669 -89.2978 238° Southwest 353 406 40,000  Level Memphis Center
Tue 04:02:53 PM 35.3142 -89.4011 238° Southwest 355 409 40,000  Level Memphis Center
Tue 04:03:55 PM 35.2611 -89.5044 238° Southwest 356 410 40,000  Level Memphis Center
Tue 04:04:56 PM 35.2083 -89.6069 238° Southwest 355 409 40,000  Level Memphis Center
Tue 04:05:57 PM 35.1556 -89.7097 238° Southwest 355 409 40,000  Level Memphis Center

Login

Don't have an account? Register now (free) for customized features, flight alerts, and more!